AAL202 KDCA-KPWM

Flight info

Callsign AAL202
Flight time N/A
Altitude 31000
Route SOOKI6 SWANN BROSS Q419 RBV Q22 LLUND BDR SCOGS3
Aircraft A321/M-SDE3FGHIRWY/LB1

Departure

Time 2026-05-03 21:43
Airport Ronald Reagan Washington National Airport (KDCA)

Arrival

Time N/A
Airport Portland International Jetport (KPWM)
Time Latitude Longitude Altitude Speed Heading
2026-05-03 21:35 38.84284 -77.03894 18 ft 0 kts 178°
2026-05-03 21:36 38.84264 -77.03893 18 ft 0 kts 176°
2026-05-03 21:37 38.84242 -77.03886 18 ft 5 kts 151°
2026-05-03 21:37 38.84218 -77.03849 18 ft 7 kts 128°
2026-05-03 21:38 38.84216 -77.03845 18 ft 0 kts 128°
2026-05-03 21:38 38.84215 -77.03845 18 ft 0 kts 128°
2026-05-03 21:39 38.84201 -77.03807 18 ft 1 kts 110°
2026-05-03 21:40 38.84195 -77.03787 18 ft 10 kts 107°
2026-05-03 21:41 38.84216 -77.03693 17 ft 12 kts 23°
2026-05-03 21:41 38.84261 -77.03687 18 ft 0 kts 358°
2026-05-03 21:42 38.84270 -77.03687 18 ft 11 kts 356°
2026-05-03 21:42 38.84651 -77.03736 20 ft 96 kts 354°
2026-05-03 21:43 38.85576 -77.03818 22 ft 166 kts 355°
2026-05-03 21:43 38.86847 -77.03936 559 ft 180 kts 341°
2026-05-03 21:43 38.87985 -77.04697 1174 ft 193 kts 320°
2026-05-03 21:43 38.89175 -77.05751 1741 ft 219 kts 325°
2026-05-03 21:44 38.90493 -77.06937 2355 ft 234 kts 319°
2026-05-03 21:44 38.91469 -77.08551 3090 ft 232 kts 292°
2026-05-03 21:44 38.92009 -77.10588 3531 ft 245 kts 295°
2026-05-03 21:44 38.93112 -77.12270 4100 ft 252 kts 323°
2026-05-03 21:45 38.94607 -77.13463 4846 ft 253 kts 329°
2026-05-03 21:45 38.96205 -77.14503 5517 ft 257 kts 334°
2026-05-03 21:45 38.99804 -77.14416 6808 ft 275 kts 25°
2026-05-03 21:46 39.01376 -77.12917 7493 ft 280 kts 35°
2026-05-03 21:46 39.02910 -77.11269 8141 ft 284 kts 37°
2026-05-03 21:46 39.04152 -77.09246 8740 ft 295 kts 60°
2026-05-03 21:46 39.04729 -77.06685 9391 ft 302 kts 77°
2026-05-03 21:47 39.05050 -77.03998 9997 ft 305 kts 78°
2026-05-03 21:47 39.05360 -77.01258 10426 ft 314 kts 78°
2026-05-03 21:47 39.05697 -76.98396 10698 ft 328 kts 77°
2026-05-03 21:47 39.06061 -76.95429 10962 ft 342 kts 77°
2026-05-03 21:48 39.06448 -76.92339 11219 ft 356 kts 77°
2026-05-03 21:48 39.06858 -76.89096 11534 ft 367 kts 77°
2026-05-03 21:48 39.07277 -76.85777 12047 ft 372 kts 77°
2026-05-03 21:48 39.07700 -76.82434 12577 ft 375 kts 77°
2026-05-03 21:49 39.08124 -76.79064 13095 ft 379 kts 77°
2026-05-03 21:49 39.08560 -76.75596 13629 ft 382 kts 77°
2026-05-03 21:49 39.09007 -76.72172 14120 ft 386 kts 76°
2026-05-03 21:49 39.09503 -76.68661 14612 ft 390 kts 76°
2026-05-03 21:50 39.10007 -76.65162 15089 ft 394 kts 76°
2026-05-03 21:50 39.10513 -76.61614 15572 ft 398 kts 76°
2026-05-03 21:50 39.11028 -76.57976 16041 ft 402 kts 76°
2026-05-03 21:50 39.11530 -76.54397 16508 ft 405 kts 76°
2026-05-03 21:51 39.12028 -76.50748 16992 ft 409 kts 77°
2026-05-03 21:51 39.12461 -76.47032 17464 ft 413 kts 78°
2026-05-03 21:51 39.12867 -76.43335 17906 ft 416 kts 78°
2026-05-03 21:51 39.13282 -76.39552 18358 ft 419 kts 78°
2026-05-03 21:52 39.13706 -76.35730 18796 ft 423 kts 78°
2026-05-03 21:52 39.14130 -76.31924 19198 ft 427 kts 79°
2026-05-03 21:52 39.14566 -76.28021 19635 ft 430 kts 79°
2026-05-03 21:52 39.15004 -76.24087 20072 ft 433 kts 78°
2026-05-03 21:53 39.15452 -76.20116 20506 ft 435 kts 78°
2026-05-03 21:53 39.15909 -76.16153 20907 ft 438 kts 78°
2026-05-03 21:53 39.16384 -76.12053 21324 ft 441 kts 78°
2026-05-03 21:53 39.16844 -76.08053 21715 ft 444 kts 78°
2026-05-03 21:54 39.17319 -76.03921 22079 ft 447 kts 78°
2026-05-03 21:54 39.17789 -75.99796 22431 ft 450 kts 78°
2026-05-03 21:54 39.18239 -75.95818 22779 ft 453 kts 78°
2026-05-03 21:54 39.18762 -75.91682 23125 ft 453 kts 72°
2026-05-03 21:55 39.19947 -75.87876 23411 ft 445 kts 53°
2026-05-03 21:55 39.21914 -75.84748 23797 ft 432 kts 36°
2026-05-03 21:55 39.24221 -75.82209 24185 ft 430 kts 32°
2026-05-03 21:55 39.26588 -75.79727 24477 ft 433 kts 32°
2026-05-03 21:56 39.29004 -75.77181 24788 ft 436 kts 32°
2026-05-03 21:56 39.31401 -75.74614 25054 ft 439 kts 32°
2026-05-03 21:56 39.33796 -75.72016 25351 ft 442 kts 33°
2026-05-03 21:56 39.36177 -75.69416 25640 ft 444 kts 33°
2026-05-03 21:57 39.38595 -75.66766 25921 ft 446 kts 33°
2026-05-03 21:57 39.40991 -75.64132 26168 ft 449 kts 33°
2026-05-03 21:57 39.43431 -75.61448 26457 ft 451 kts 33°
2026-05-03 21:57 39.45856 -75.58780 26739 ft 452 kts 33°
2026-05-03 21:58 39.48305 -75.56084 27003 ft 454 kts 33°
2026-05-03 21:58 39.50756 -75.53383 27259 ft 456 kts 33°
2026-05-03 21:58 39.53193 -75.50694 27573 ft 456 kts 33°
2026-05-03 21:58 39.55654 -75.47972 27941 ft 455 kts 33°
2026-05-03 21:59 39.58104 -75.45260 28281 ft 455 kts 33°
2026-05-03 21:59 39.60590 -75.42507 28632 ft 454 kts 33°
2026-05-03 21:59 39.63000 -75.39836 28953 ft 453 kts 33°
2026-05-03 21:59 39.65407 -75.37165 29263 ft 453 kts 32°
2026-05-03 22:00 39.67856 -75.34450 29519 ft 454 kts 33°
2026-05-03 22:00 39.70313 -75.31722 29751 ft 455 kts 33°
2026-05-03 22:00 39.72768 -75.28992 29954 ft 456 kts 33°
2026-05-03 22:00 39.75215 -75.26268 30176 ft 458 kts 33°
2026-05-03 22:01 39.77656 -75.23488 30404 ft 460 kts 35°
2026-05-03 22:01 39.79997 -75.20523 30614 ft 464 kts 39°
2026-05-03 22:01 39.82242 -75.17339 30812 ft 468 kts 41°
2026-05-03 22:01 39.84412 -75.14122 30956 ft 470 kts 42°
2026-05-03 22:02 39.88801 -75.07543 30978 ft 469 kts 42°
2026-05-03 22:02 39.93178 -75.01006 30978 ft 469 kts 42°
2026-05-03 22:03 39.97575 -74.94054 30957 ft 472 kts 47°
2026-05-03 22:03 40.01432 -74.86664 30957 ft 472 kts 50°
2026-05-03 22:04 40.05253 -74.79107 30949 ft 471 kts 50°
2026-05-03 22:04 40.09061 -74.71598 30942 ft 472 kts 50°
2026-05-03 22:05 40.12759 -74.64305 30942 ft 472 kts 50°
2026-05-03 22:05 40.16461 -74.56997 30936 ft 469 kts 49°
2026-05-03 22:06 40.20525 -74.50155 30932 ft 463 kts 41°
2026-05-03 22:06 40.25237 -74.44110 30926 ft 456 kts 33°
2026-05-03 22:07 40.30346 -74.38636 30922 ft 455 kts 31°
2026-05-03 22:07 40.35383 -74.33296 30915 ft 456 kts 32°
2026-05-03 22:08 40.40393 -74.27940 30916 ft 456 kts 32°
2026-05-03 22:08 40.45447 -74.22516 30916 ft 457 kts 33°
2026-05-03 22:09 40.50490 -74.17085 30910 ft 456 kts 33°
2026-05-03 22:10 40.57955 -74.09029 30908 ft 456 kts 33°
2026-05-03 22:10 40.62988 -74.03583 30905 ft 456 kts 33°
2026-05-03 22:11 40.68042 -73.98104 30906 ft 456 kts 33°
2026-05-03 22:11 40.73085 -73.92626 30890 ft 456 kts 33°
2026-05-03 22:12 40.78105 -73.87156 30898 ft 456 kts 33°
2026-05-03 22:12 40.82958 -73.81651 30896 ft 459 kts 38°
2026-05-03 22:13 40.87301 -73.75297 30885 ft 466 kts 46°
2026-05-03 22:13 40.90960 -73.68087 30888 ft 470 kts 53°
2026-05-03 22:14 40.94356 -73.60570 30889 ft 470 kts 54°
2026-05-03 22:14 40.97738 -73.53078 30878 ft 470 kts 54°
2026-05-03 22:15 41.01122 -73.45604 30882 ft 470 kts 54°
2026-05-03 22:15 41.04519 -73.38096 30875 ft 470 kts 53°
2026-05-03 22:16 41.07921 -73.30566 30881 ft 469 kts 54°
2026-05-03 22:16 41.11300 -73.23068 30885 ft 470 kts 54°
2026-05-03 22:17 41.14667 -73.15577 30876 ft 470 kts 54°
2026-05-03 22:17 41.18063 -73.08139 30873 ft 470 kts 53°
2026-05-03 22:18 41.21579 -73.00705 30874 ft 469 kts 53°
2026-05-03 22:18 41.25074 -72.93290 30877 ft 468 kts 53°
2026-05-03 22:19 41.28561 -72.85852 30874 ft 468 kts 53°
2026-05-03 22:19 41.32019 -72.78452 30871 ft 468 kts 53°
2026-05-03 22:20 41.35488 -72.71007 30868 ft 467 kts 53°
2026-05-03 22:20 41.38917 -72.63628 30865 ft 467 kts 53°
2026-05-03 22:21 41.42366 -72.56190 30859 ft 468 kts 53°
2026-05-03 22:21 41.45802 -72.48759 30854 ft 467 kts 53°
2026-05-03 22:22 41.49260 -72.41264 30858 ft 467 kts 53°
2026-05-03 22:22 41.52710 -72.33771 30863 ft 468 kts 54°
2026-05-03 22:23 41.56137 -72.26306 30854 ft 468 kts 54°
2026-05-03 22:23 41.59552 -72.18846 30855 ft 468 kts 54°
2026-05-03 22:24 41.62972 -72.11361 30848 ft 468 kts 54°
2026-05-03 22:24 41.66376 -72.03892 30848 ft 467 kts 54°
2026-05-03 22:25 41.69778 -71.96405 30839 ft 468 kts 54°
2026-05-03 22:25 41.73181 -71.88896 30833 ft 468 kts 54°
2026-05-03 22:26 41.76584 -71.81376 30842 ft 467 kts 54°
2026-05-03 22:26 41.79970 -71.73868 30820 ft 467 kts 54°
2026-05-03 22:27 41.83390 -71.66259 30819 ft 468 kts 55°
2026-05-03 22:27 41.86451 -71.58388 30811 ft 470 kts 60°
2026-05-03 22:28 41.89374 -71.50236 30812 ft 469 kts 60°
2026-05-03 22:28 41.92251 -71.42191 30803 ft 469 kts 60°
2026-05-03 22:29 41.95104 -71.34217 30805 ft 469 kts 61°
2026-05-03 22:29 41.97947 -71.26260 30812 ft 468 kts 61°
2026-05-03 22:30 42.00801 -71.18252 30817 ft 469 kts 61°
2026-05-03 22:30 42.03661 -71.10201 30804 ft 469 kts 61°
2026-05-03 22:31 42.06491 -71.02213 30801 ft 469 kts 60°
2026-05-03 22:31 42.10215 -70.95146 30803 ft 459 kts 39°
2026-05-03 22:32 42.15557 -70.90344 30807 ft 446 kts 18°
2026-05-03 22:32 42.21415 -70.87553 30811 ft 444 kts 13°
2026-05-03 22:32 42.24349 -70.86237 30525 ft 445 kts 14°
2026-05-03 22:33 42.27273 -70.84911 30007 ft 445 kts 14°
2026-05-03 22:33 42.30206 -70.83562 29366 ft 446 kts 14°
2026-05-03 22:33 42.33142 -70.82197 28669 ft 448 kts 14°
2026-05-03 22:33 42.36080 -70.80824 27948 ft 449 kts 14°
2026-05-03 22:34 42.39028 -70.79443 27207 ft 450 kts 14°
2026-05-03 22:34 42.41991 -70.78054 26527 ft 449 kts 14°
2026-05-03 22:34 42.44899 -70.76585 26036 ft 445 kts 17°
2026-05-03 22:34 42.47760 -70.75033 25513 ft 441 kts 17°
2026-05-03 22:35 42.50585 -70.73477 24970 ft 436 kts 17°
2026-05-03 22:35 42.53382 -70.71931 24431 ft 432 kts 17°
2026-05-03 22:35 42.56155 -70.70401 23886 ft 428 kts 17°
2026-05-03 22:35 42.58891 -70.68893 23356 ft 423 kts 17°
2026-05-03 22:36 42.61608 -70.67396 22834 ft 418 kts 17°
2026-05-03 22:36 42.64292 -70.65918 22304 ft 414 kts 17°
2026-05-03 22:36 42.66948 -70.64450 21789 ft 411 kts 17°
2026-05-03 22:36 42.69548 -70.62889 21275 ft 408 kts 19°
2026-05-03 22:37 42.72113 -70.61285 20757 ft 405 kts 19°
2026-05-03 22:37 42.74652 -70.59684 20231 ft 402 kts 20°
2026-05-03 22:37 42.77182 -70.58086 19704 ft 398 kts 19°
2026-05-03 22:37 42.79682 -70.56509 19190 ft 395 kts 19°
2026-05-03 22:38 42.82165 -70.54944 18673 ft 393 kts 19°
2026-05-03 22:38 42.84629 -70.53391 18134 ft 390 kts 19°
2026-05-03 22:38 42.87083 -70.51844 17606 ft 388 kts 20°
2026-05-03 22:38 42.89516 -70.50308 17075 ft 385 kts 20°
2026-05-03 22:39 42.91931 -70.48782 16542 ft 382 kts 20°
2026-05-03 22:39 42.94328 -70.47264 16020 ft 379 kts 20°
2026-05-03 22:39 42.96711 -70.45756 15515 ft 376 kts 20°
2026-05-03 22:39 42.99075 -70.44258 14991 ft 374 kts 20°
2026-05-03 22:40 43.01416 -70.42722 14483 ft 373 kts 22°
2026-05-03 22:40 43.03664 -70.40982 13992 ft 372 kts 26°
2026-05-03 22:40 43.05833 -70.39128 13604 ft 364 kts 27°
2026-05-03 22:40 43.07933 -70.37299 13136 ft 354 kts 27°
2026-05-03 22:41 43.09975 -70.35517 12581 ft 344 kts 27°
2026-05-03 22:41 43.12000 -70.33753 12047 ft 334 kts 28°
2026-05-03 22:41 43.13942 -70.32063 11534 ft 324 kts 28°
2026-05-03 22:41 43.15816 -70.30434 11067 ft 315 kts 28°
2026-05-03 22:42 43.17618 -70.28858 10843 ft 297 kts 28°
2026-05-03 22:42 43.19289 -70.27382 10834 ft 275 kts 27°
2026-05-03 22:42 43.20844 -70.26008 10753 ft 260 kts 27°
2026-05-03 22:42 43.22366 -70.24675 10619 ft 258 kts 27°
2026-05-03 22:43 43.23879 -70.23351 10474 ft 257 kts 27°
2026-05-03 22:43 43.25375 -70.22042 10302 ft 252 kts 27°
2026-05-03 22:43 43.26833 -70.20780 10158 ft 243 kts 26°
2026-05-03 22:43 43.28230 -70.19575 10060 ft 233 kts 26°
2026-05-03 22:44 43.29602 -70.18395 9869 ft 233 kts 26°
2026-05-03 22:44 43.30968 -70.17220 9609 ft 231 kts 26°
2026-05-03 22:44 43.32331 -70.16072 9334 ft 228 kts 24°
2026-05-03 22:44 43.33703 -70.14986 9054 ft 227 kts 24°
2026-05-03 22:45 43.35066 -70.13912 8775 ft 225 kts 23°
2026-05-03 22:45 43.36422 -70.12844 8475 ft 224 kts 23°
2026-05-03 22:45 43.37770 -70.11780 8187 ft 222 kts 23°
2026-05-03 22:45 43.39106 -70.10725 7901 ft 221 kts 23°
2026-05-03 22:46 43.40439 -70.09673 7608 ft 220 kts 23°
2026-05-03 22:46 43.41760 -70.08628 7327 ft 219 kts 23°
2026-05-03 22:46 43.43075 -70.07587 7061 ft 217 kts 22°
2026-05-03 22:46 43.44379 -70.06556 6787 ft 216 kts 22°
2026-05-03 22:47 43.45673 -70.05532 6510 ft 214 kts 22°
2026-05-03 22:47 43.46964 -70.04510 6237 ft 213 kts 22°
2026-05-03 22:47 43.48243 -70.03497 5981 ft 211 kts 23°
2026-05-03 22:47 43.49504 -70.02495 5752 ft 208 kts 22°
2026-05-03 22:48 43.50746 -70.01507 5516 ft 204 kts 22°
2026-05-03 22:48 43.51954 -70.00544 5332 ft 197 kts 22°
2026-05-03 22:48 43.53127 -69.99610 5069 ft 193 kts 22°
2026-05-03 22:48 43.54277 -69.98699 4791 ft 189 kts 22°
2026-05-03 22:49 43.55402 -69.97806 4521 ft 184 kts 21°
2026-05-03 22:49 43.56558 -69.97243 4231 ft 170 kts
2026-05-03 22:49 43.57690 -69.97300 3974 ft 156 kts 343°
2026-05-03 22:49 43.58669 -69.97814 3701 ft 148 kts 328°
2026-05-03 22:50 43.59469 -69.98694 3466 ft 148 kts 314°
2026-05-03 22:50 43.60088 -69.99828 3248 ft 149 kts 308°
2026-05-03 22:50 43.60689 -70.01039 3123 ft 156 kts 307°
2026-05-03 22:50 43.61309 -70.02308 3103 ft 160 kts 307°
2026-05-03 22:51 43.61927 -70.03586 3065 ft 160 kts 304°
2026-05-03 22:51 43.62393 -70.05002 3036 ft 164 kts 293°
2026-05-03 22:51 43.62674 -70.06531 3051 ft 165 kts 287°
2026-05-03 22:51 43.62873 -70.08094 3112 ft 166 kts 285°
2026-05-03 22:52 43.63035 -70.09676 2939 ft 166 kts 283°
2026-05-03 22:52 43.63163 -70.11257 2723 ft 166 kts 282°
2026-05-03 22:52 43.63272 -70.12833 2500 ft 165 kts 281°
2026-05-03 22:52 43.63369 -70.14347 2262 ft 152 kts 281°
2026-05-03 22:53 43.63455 -70.15724 2036 ft 137 kts 281°
2026-05-03 22:53 43.63533 -70.16958 1834 ft 123 kts 282°
2026-05-03 22:53 43.63612 -70.18129 1683 ft 123 kts 281°
2026-05-03 22:53 43.63691 -70.19304 1542 ft 123 kts 282°
2026-05-03 22:54 43.63769 -70.20480 1393 ft 123 kts 282°
2026-05-03 22:54 43.63847 -70.21659 1224 ft 124 kts 281°
2026-05-03 22:54 43.63925 -70.22837 1063 ft 123 kts 281°
2026-05-03 22:54 43.64005 -70.24026 896 ft 125 kts 280°
2026-05-03 22:55 43.64084 -70.25221 720 ft 125 kts 280°
2026-05-03 22:55 43.64159 -70.26335 558 ft 125 kts 280°
2026-05-03 22:55 43.64236 -70.27535 387 ft 126 kts 278°
2026-05-03 22:55 43.64252 -70.27939 327 ft 127 kts 276°